Zurück zum Katalog

DELTA 1 DEB

AktivHEO
NORAD 4841·DEBRIS·🇺🇸 United States

Gestartet Jul 4, 1968 von Vandenberg Space Force Base

Loading…

Nächste Überflüge

TLE

Source: Space-Track
1 04841U 68055D   26214.79762495  .00000166  00000-0  28033-3 0  9997
2 04841 120.7176 315.5756 2697825 235.9282 308.4507  9.29285443139764

Verfolge DELTA 1 DEB in Echtzeit mit AllMySat

Download on the App Store